User: anonymous   Login
Location: Jetmore Oil Field
(38.1181°N, 99.9337°W)
Time: 18:54:44
(UTC+00:00)
Language:

STARLINK-2715 - Orbit

View from above orbital plane
View from above orbital plane
View from above satellite
View from above satellite

Ground track
Ground track

The orbit data is extracted from the following two-line orbital elements,

1 48697C 21044BM  21270.37466118 -.00018026  00000-0 -12075-2 0  2701
2 48697  53.0542 183.4410 0002455  56.2829 334.1684 15.06422260    12
Epoch (UTC): 27 September 2021 08:59:30
Eccentricity: 0.0002455
inclination: 53.0542°
perigee height: 545 km
apogee height: 549 km
right ascension of ascending node: 183.4410°
argument of perigee: 56.2829°
revolutions per day: 15.06422260
mean anomaly at epoch: 334.1684°
orbit number at epoch: 1

The dashed part of the orbit path shows where the satellite is in the earth's shadow,  

DLR